Flag for Australia Weather past 2 weeks in Wagga Wagga, New South Wales, Australia

Now
45 °F

Clear.


Feels Like: 45 °F
Forecast: 40 / 65 °F
Wind: No wind

Location: Wagga Airport

Current Time: Oct 1, 2014 at 10:35:48 PM

Latest Report: Oct 1, 2014 at 10:00 PM


Visibility: N/A

Pressure: 30.21 "Hg

Humidity: 71%

Dew point: 36 °F

Location of Wagga WaggaLocation

Historic Weather in Wagga Wagga — Graph

°F

Wagga Wagga temperature yesterday

Maximum temperature yesterday: 79 °F (at 3:00 PM)
Minimum temperature yesterday: 45 °F (at 5:00 AM)
Average temperature yesterday: 62 °F

Past Weeks' High & Low Weather Summary

 TemperatureHumidityPressure
High79 °F (Sep 30, 3:00 PM)100% (Sep 17, 2:00 AM)30.45 "Hg (Sep 17, 2:00 AM)
Low30 °F (Sep 19, 5:00 AM)16% (Sep 30, 3:00 PM)29.77 "Hg (Sep 30, 4:00 PM)
Average54 °F67%30.10 "Hg
* Reported Sep 16 9:00 PM — Oct 1 9:00 PM, Wagga Wagga, Weather by CustomWeather, © 2014

Note: Actual official high and low records may vary slightly from our data, if they occured in-between our weather recording intervals... More about our weather records

Advertising

Wagga Wagga weather history for previous 24 hours

 ConditionsComfort  
Time TempWeatherWind HumidityBarometerVisibility
9:00 PM
Oct 1
48 °FClear.3 mph58%30.21 "HgN/A
8:00 PM48 °FClear.6 mph58%30.21 "HgN/A
7:00 PM48 °FClear.8 mph62%30.21 "HgN/A
6:00 PM54 °FClear.8 mph47%30.18 "HgN/A
5:00 PM57 °FSunny.13 mph39%30.15 "Hg10 mi
4:00 PM59 °FSunny.17 mph36%30.15 "Hg10 mi
3:00 PM61 °FSunny.18 mph31%30.15 "Hg10 mi
2:00 PM61 °FSunny.20 mph34%30.15 "Hg10 mi
1:00 PM59 °FSunny.17 mph36%30.15 "Hg10 mi
12:00 PM57 °FSunny.15 mph41%30.18 "Hg10 mi
11:00 AM55 °FPassing clouds.16 mph41%30.18 "HgN/A
10:00 AM54 °FPassing clouds.17 mph47%30.18 "HgN/A
9:00 AM50 °FPassing clouds.17 mph58%30.18 "HgN/A
8:00 AM48 °FPassing clouds.15 mph62%30.18 "HgN/A
7:00 AM45 °FSunny.7 mph71%30.15 "Hg10 mi
6:00 AM41 °FSunny.7 mph76%30.12 "Hg10 mi
5:00 AM43 °FSunny.10 mph76%30.09 "HgN/A
4:00 AM43 °FClear.10 mph76%30.07 "HgN/A
3:00 AM45 °FClear.10 mph71%30.04 "HgN/A
2:00 AM46 °FClear.9 mph71%30.01 "HgN/A
1:00 AM48 °FClear.8 mph66%30.01 "HgN/A
12:00 AM52 °FOvercast.10 mph58%29.98 "HgN/A
11:00 PM
Sep 30
52 °FPassing clouds.15 mph58%29.95 "HgN/A
10:00 PM57 °FMostly cloudy.24 mph48%29.92 "HgN/A
Weather by CustomWeather, © 2014

See weather overviewHow to use our weather pages